{"data":{"norad_id":69087,"intl_designator":"2026-104Q","name":"QIANFAN-141","alt_names":[],"object_type":"PAYLOAD","status":"ACTIVE","operator":null,"country":"PRC","launch_date":"2026-05-12","launch_site_code":"TAISC","launch_vehicle":null,"mission":null,"orbit_class":"UNKNOWN","rcs_meters":null,"size_class":null,"mass_kg":null,"dimensions":null,"purposes":[],"wikipedia_slug":null,"has_3d_model":false,"image_url":null,"decayed_at":null,"tle_current":{"epoch":"2026-05-25T04:17:46.729248Z","epoch_age_seconds":56279,"freshness":"FRESH","line1":"1 69087U 26104Q   26145.17901307  .00000086  00000+0  32401-4 0  9996","line2":"2 69087  88.9863 344.2461 0002619 166.0915 194.0349 14.21988799  1823","mean_motion":14.21988799,"eccentricity":0.0002619,"inclination_deg":88.9863,"raan_deg":344.2461,"arg_perigee_deg":166.0915,"mean_anomaly_deg":194.0349,"bstar":3.2401e-5,"rev_number":182,"period_min":101.26662045529,"perigee_km":816.74983844556,"apogee_km":820.51950744785,"semimajor_km":7196.7716729467,"source":"CELESTRAK","updated_at":"2026-05-25T13:38:09.052172Z"}}}